Location: Ayer Observatory
(42.2600°N, 71.0700°W)
Time: 04:50:58
(UTC-04:00)

FO-29 - Pass Details

Date: 26 August 2019
Orbit: 801 x 1321 km, 98.6° (Epoch: 21 October)

Event Time Altitude Azimuth Distance (km) Brightness Sun altitude
Exits shadow 03:50:27 52° 238° (WSW) 1,013 9.2 -22.5°
Maximum altitude 03:50:56 54° 259° (W) 988 9.2 -22.4°
Drops below altitude 10° 03:56:02 10° 337° (NNW) 2,386 11.7 -21.7°
Sets 03:58:24 0° 342° (NNW) 3,324 12.6 -21.4°
